Starlink 31791

operational
NORAD ID: 59637 Int'l Des: 2024-082 Owner: SPXS Country: US Constellation: starlink
LEOCIRCULAR

Über Starlink 31791

Beschreibung wird geladen...

Live-Position

3D-Globus wird geladen...

Nächste Überflüge

Höhenverlauf

Altitude vs Time

uPlot chart will show altitude changes over time

Zweizeiliger Elementsatz

1 59637U 24082G 25351.03468923 .00000930 00000-0 43319-4 0 9993
2 59637 43.0015 246.3706 0001097 282.5375 77.5353 15.27588630 92176
Epoch: 17. Dez. 2025 • Age: 13 hours

Aktueller Status

Höhe 486.4 km
Geschwindigkeit 7.63 km/s
Subsatellitenpunkt 41.33°N, 20.9°E
Startdatum 3. Mai 2024
Alter 1.6 years
Typ internet

Technische Details

Klassifizierung Payload
Masse 730.00 kg
Trockenmasse 700.00 kg
Gesamtmasse 730.00 kg
Länge 0.30 m
Durchmesser 4.10 m
Spannweite 29.00 m
Form Box + pan
Hersteller SPXS
Bus-Typ Starlink V2M
Phasenstatus In Orbit
Besitzer/Staat SPXS/US

Große Konstellationen

Loading constellations...